DW4539 Weather Reports


Display with metric or nautical units.
time (UTC)temp
F
wind
direction
speed
MPH
gust
MPH
rain 1hr
in
rain 24hr
in
rain mn
in
humidity
%
barometer
mb
20200402102508 39 300 9.0 13.0 0.00 0.01 0.00 82 1015.1
20200402101513 39 302 6.0 15.0 0.00 0.01 0.00 82 1014.9
20200402100519 39 317 8.0 15.0 0.00 0.01 0.00 83 1014.8
20200402095507 39 316 5.0 16.0 0.00 0.01 0.00 84 1014.7
20200402094512 39 309 8.0 14.0 0.00 0.01 0.00 85 1014.6
20200402093520 39 314 9.0 15.0 0.00 0.01 0.00 86 1014.4
20200402092521 39 306 8.0 17.0 0.00 0.01 0.00 87 1014.3
20200402090512 39 355 10.0 17.0 0.00 0.01 0.00 88 1014.1
20200402085520 38 293 7.0 17.0 0.00 0.01 0.00 88 1014.1
20200402084525 38 316 11.0 17.0 0.00 0.01 0.00 88 1014.1
20200402083512 38 338 9.0 16.0 0.00 0.01 0.00 89 1014.1
20200402082516 38 313 8.0 15.0 0.00 0.01 0.00 89 1014.1
20200402081507 38 304 10.0 14.0 0.00 0.01 0.00 89 1014.2
20200402080510 38 310 7.0 14.0 0.00 0.01 0.00 89 1014.2
20200402075516 38 345 6.0 12.0 0.00 0.01 0.00 90 1014.2
20200402074514 38 323 6.0 11.0 0.00 0.01 0.00 90 1014.2
20200402073519 38 296 7.0 12.0 0.00 0.01 0.00 90 1014.1
20200402072519 38 307 4.0 11.0 0.00 0.01 0.00 90 1014.1
20200402071521 38 5 4.0 10.0 0.00 0.01 0.00 89 1014.1
20200402070506 38 324 4.0 13.0 0.00 0.01 0.00 88 1014.1
20200402065509 38 319 5.0 11.0 0.00 0.01 0.00 88 1014.1
20200402064514 38 309 7.0 16.0 0.00 0.01 0.00 88 1014.2
20200402063516 38 333 5.0 12.0 0.00 0.01 0.00 88 1014.3
20200402062519 37 317 6.0 9.0 0.00 0.01 0.00 89 1014.3
20200402061522 37 317 6.0 8.0 0.00 0.01 0.00 88 1014.4
20200402060506 37 324 6.0 11.0 0.00 0.01 0.00 88 1014.4
20200402055513 38 309 7.0 11.0 0.00 0.01 0.00 87 1014.5
20200402054505 38 311 6.0 10.0 0.00 0.01 0.00 88 1014.6
20200402053517 38 15 4.0 10.0 0.00 0.01 0.00 87 1014.4
20200402052524 38 315 10.0 14.0 0.00 0.01 0.00 87 1014.5
20200402051523 38 312 7.0 16.0 0.00 0.01 0.00 86 1014.4
20200402050513 39 308 12.0 24.0 0.00 0.01 0.00 85 1014.4
20200402045526 39 330 11.0 21.0 0.00 0.01 0.00 84 1014.3
20200402044520 39 321 10.0 16.0 0.00 0.01 0.00 84 1014.3
20200402043507 39 311 5.0 16.0 0.00 0.01 0.00 85 1014.3
20200402042512 38 310 6.0 12.0 0.00 0.01 0.00 85 1014.6
20200402041525 38 311 6.0 11.0 0.00 0.01 0.00 84 1014.7
20200402040515 39 342 8.0 14.0 0.00 0.01 0.00 83 1014.8
20200402035522 39 319 7.0 14.0 0.00 0.01 0.01 83 1013.9
20200402034510 39 325 10.0 15.0 0.00 0.01 0.01 83 1013.9
20200402033519 39 355 7.0 11.0 0.00 0.01 0.01 83 1014.0
20200402032510 39 333 4.0 14.0 0.00 0.01 0.01 83 1013.9
20200402031519 39 5 5.0 11.0 0.00 0.03 0.01 83 1013.7
20200402030509 39 355 5.0 15.0 0.00 0.03 0.01 83 1013.5
20200402025519 39 5 6.0 13.0 0.00 0.03 0.01 84 1013.4
20200402024524 39 24 4.0 11.0 0.00 0.03 0.01 84 1013.3
20200402023513 39 299 8.0 12.0 0.00 0.03 0.01 85 1013.4
20200402022517 39 302 7.0 15.0 0.00 0.03 0.01 85 1013.3
20200402021505 39 312 6.0 13.0 0.00 0.04 0.01 85 1013.1
20200402020514 39 355 11.0 18.0 0.00 0.04 0.01 84 1013.0
20200402015522 39 319 8.0 15.0 0.00 0.04 0.01 84 1012.9
20200402014511 39 305 6.0 20.0 0.00 0.04 0.01 82 1012.9
20200402013520 39 348 8.0 18.0 0.00 0.04 0.01 81 1012.9
20200402012510 40 329 9.0 15.0 0.00 0.04 0.01 80 1012.8
20200402011520 40 355 9.0 18.0 0.00 0.05 0.01 80 1012.8
20200402010508 40 331 8.0 21.0 0.00 0.05 0.01 80 1012.7
20200402005517 40 317 11.0 20.0 0.00 0.05 0.01 80 1012.6
20200402004526 40 316 11.0 18.0 0.00 0.05 0.01 80 1012.4
20200402003513 41 313 9.0 18.0 0.00 0.05 0.01 80 1012.1
20200402002519 40 304 9.0 26.0 0.00 0.05 0.01 80 1011.9
20200402001507 40 327 9.0 17.0 0.00 0.12 0.01 80 1011.9
20200402000516 41 351 10.0 16.0 0.00 0.12 0.01 81 1011.7
20200401235524 41 324 7.0 17.0 0.00 0.12 0.01 81 1012.5
20200401234513 41 309 10.0 20.0 0.00 0.12 0.01 80 1012.5
20200401233504 41 304 5.0 11.0 0.00 0.12 0.01 79 1012.4
20200401232515 42 309 6.0 19.0 0.00 0.12 0.01 77 1012.2
20200401231522 43 300 10.0 18.0 0.00 0.21 0.01 75 1012.0
20200401230512 43 328 7.0 15.0 0.00 0.21 0.01 74 1011.1
20200401225522 43 312 12.0 17.0 0.00 0.21 0.01 73 1010.9
20200401224514 43 322 9.0 19.0 0.00 0.21 0.01 73 1010.9
20200401223509 43 348 7.0 17.0 0.00 0.21 0.01 73 1010.8
20200401222520 43 309 6.0 15.0 0.00 0.21 0.01 74 1010.8
20200401221515 43 336 6.0 14.0 0.00 0.21 0.01 73 1010.8
20200401220508 43 9 5.0 14.0 0.00 0.21 0.01 75 1010.7
20200401215523 43 317 12.0 18.0 0.00 0.21 0.01 74 1010.6
20200401214519 44 335 7.0 15.0 0.00 0.21 0.01 72 1010.6
20200401213512 44 5 9.0 14.0 0.00 0.21 0.01 71 1010.5
20200401212507 44 355 6.0 17.0 0.00 0.21 0.01 72 1010.5
20200401211520 44 347 7.0 14.0 0.00 0.21 0.01 71 1010.4
20200401210518 45 311 10.0 19.0 0.00 0.21 0.01 68 1010.3
20200401205505 46 5 10.0 18.0 0.00 0.21 0.01 67 1010.2
20200401204514 45 285 9.0 18.0 0.00 0.21 0.01 68 1010.2
20200401203524 45 325 11.0 16.0 0.00 0.21 0.01 69 1010.1
20200401202509 44 343 10.0 22.0 0.00 0.21 0.01 71 1010.2
20200401201515 45 350 10.0 18.0 0.00 0.21 0.01 68 1010.2
20200401200520 45 322 9.0 17.0 0.00 0.21 0.01 69 1010.2
20200401195517 45 327 7.0 12.0 0.00 0.21 0.01 71 1010.1
20200401194504 46 313 7.0 15.0 0.00 0.21 0.01 67 1010.0
20200401193513 47 307 14.0 18.0 0.00 0.21 0.01 70 1010.0
20200401192519 46 306 10.0 18.0 0.00 0.21 0.01 69 1010.0
20200401191505 46 326 14.0 22.0 0.00 0.22 0.01 68 1010.1
20200401190515 46 344 12.0 18.0 0.00 0.22 0.01 69 1010.2
20200401185521 46 277 11.0 22.0 0.00 0.22 0.01 68 1010.2
20200401184508 44 301 7.0 14.0 0.00 0.22 0.01 73 1010.3
20200401183514 45 311 7.0 15.0 0.00 0.22 0.01 72 1010.4
20200401182522 45 360 6.0 15.0 0.00 0.22 0.01 70 1010.4
20200401181509 45 325 10.0 16.0 0.00 0.35 0.01 69 1010.3
20200401180515 45 5 12.0 18.0 0.00 0.35 0.01 71 1010.3
20200401175521 45 5 12.0 18.0 0.00 0.35 0.01 68 1010.2
20200401174526 44 15 7.0 13.0 0.00 0.35 0.01 69 1010.2
20200401173511 44 334 9.0 15.0 0.00 0.35 0.01 71 1010.1
20200401172517 43 316 8.0 18.0 0.00 0.35 0.01 72 1010.3
20200401171524 42 311 11.0 21.0 0.00 0.43 0.01 70 1010.3
20200401170511 42 322 8.0 18.0 0.00 0.43 0.01 71 1010.2
20200401165515 43 9 11.0 19.0 0.00 0.43 0.01 70 1010.1
20200401164520 44 314 9.0 13.0 0.00 0.43 0.01 71 1010.0
20200401163507 43 341 8.0 15.0 0.00 0.43 0.01 69 1010.0
20200401162520 44 13 3.0 20.0 0.00 0.43 0.01 71 1009.9
20200401161514 43 304 10.0 17.0 0.00 0.45 0.01 70 1009.8
20200401160507 43 320 7.0 20.0 0.00 0.45 0.01 71 1009.8
20200401155520 43 302 8.0 21.0 0.00 0.45 0.01 71 1009.8
20200401154518 43 302 9.0 14.0 0.00 0.45 0.01 74 1009.6
20200401153514 42 320 10.0 19.0 0.00 0.45 0.01 75 1009.5
20200401152508 43 327 6.0 18.0 0.00 0.45 0.01 75 1009.4
20200401151520 42 350 9.0 18.0 0.00 0.45 0.01 78 1009.4
20200401150513 40 325 14.0 19.0 0.01 0.45 0.01 78 1009.2
20200401145526 41 14 12.0 19.0 0.01 0.45 0.01 80 1009.1
20200401144520 41 5 13.0 22.0 0.01 0.45 0.01 80 1009.0
20200401143516 40 320 12.0 20.0 0.01 0.45 0.01 81 1008.9
20200401142507 40 346 9.0 17.0 0.01 0.45 0.01 83 1008.7
20200401141511 40 295 7.0 18.0 0.01 0.45 0.01 85 1008.6
20200401140525 40 5 5.0 16.0 0.00 0.44 0.00 86 1008.7
20200401135527 39 331 5.0 14.0 0.00 0.44 0.00 87 1008.4
20200401134511 39 355 9.0 15.0 0.00 0.44 0.00 87 1008.3
20200401133516 39 344 6.0 15.0 0.00 0.44 0.00 88 1008.3
20200401132508 39 350 7.0 15.0 0.00 0.44 0.00 90 1008.1
20200401131522 38 325 8.0 14.0 0.00 0.44 0.00 90 1007.9
20200401130518 37 313 8.0 16.0 0.00 0.44 0.00 91 1007.9
20200401125511 37 319 10.0 16.0 0.00 0.44 0.00 91 1007.7
20200401124515 37 306 9.0 14.0 0.00 0.44 0.00 92 1007.7
20200401123508 37 317 3.0 9.0 0.00 0.44 0.00 93 1007.5
20200401122519 37 355 6.0 13.0 0.00 0.44 0.00 93 1007.4
20200401121520 37 350 6.0 14.0 0.00 0.44 0.00 93 1007.2
20200401120515 37 325 4.0 12.0 0.00 0.44 0.00 93 1007.9
20200401115532 36 360 9.0 16.0 0.00 0.44 0.00 93 1007.7
20200401114512 36 321 9.0 13.0 0.00 0.44 0.00 93 1007.7
20200401113526 36 5 10.0 17.0 0.00 0.44 0.00 94 1007.7
20200401112517 36 355 10.0 14.0 0.00 0.44 0.00 94 1007.5
20200401111514 36 355 7.0 14.0 0.00 0.44 0.00 94 1007.4
20200401110508 36 349 6.0 11.0 0.00 0.44 0.00 94 1007.2
20200401105504 36 347 5.0 12.0 0.00 0.44 0.00 95 1007.0
20200401104521 36 348 5.0 10.0 0.00 0.44 0.00 95 1006.8
20200401103515 36 10 8.0 11.0 0.00 0.44 0.00 95 1006.6